Shelbyville, IN

1:45 AM EST on February 27, 2017 (GMT -0500)
Shelbyville Municipal

Weather History for KGEZ - December, 2011

Change the Weather History Date:

Thursday, December 8, 2011

  Actual Average Record
Temperature  
Mean Temperature 33 °F 34 °F  
Max Temperature 41 °F 42 °F 54 °F (2015)
Min Temperature 25 °F 26 °F 5 °F (2010)
Degree Days  
Heating Degree Days 32 31  
Month to date heating degree days 210 238  
Since 1 July heating degree days 1129 1313  
Cooling Degree Days 0 0  
Month to date cooling degree days 0 0  
Year to date cooling degree days 1244 913  
Moisture  
Dew Point 24 °F    
Average Humidity 68    
Maximum Humidity 84    
Minimum Humidity 51    
Precipitation  
Precipitation 0.00 in 0.11 in 0.45 in (2005)
Month to date precipitation 1.94 0.89  
Year to date precipitation 52.08 41.18  
Sea Level Pressure  
Sea Level Pressure 30.22 in    
Wind  
Wind Speed 5 mph (SSW)    
Max Wind Speed 16 mph    
Max Gust Speed 18 mph    
Visibility 10 miles    
Events      
T = Trace of Precipitation, MM = Missing Value Source: NWS Daily Summary

Daily Weather History Graph

Daily Weather History Graph

Search for Another Location

Airport or City:

Trip Planner

Search our weather history database for the weather conditions in past years. The results will help you decide how hot, cold, wet, or windy it might be!

Date:

Astronomy

Dec. 08, 2011 Rise Set
Actual Time 7:50 AM EST 5:19 PM EST
Civil Twilight 7:20 AM EST 5:49 PM EST
Nautical Twilight 6:47 AM EST 6:22 PM EST
Astronomical Twilight 6:14 AM EST 6:55 PM EST
Moon 3:57 PM EST (12/8) 6:02 AM EST (12/8)
Length of Visible Light 10h 28m
Length of Day
9h 28m
Waxing Gibbous, 97% of the Moon is Illuminated
Dec 8
Waxing Gibbous
Dec 10
Full
Dec 17
Last Quarter
Dec 24
New
Jan 1
First Quarter

Hourly Weather History & Observations

Time (EST) Temp. Windchill Dew Point Humidity Pressure Visibility Wind Dir Wind Speed Gust Speed Precip Events Conditions
12:53 AM 28.9 °F 21.1 °F 21.9 °F 75% 30.16 in 10.0 mi West 8.1 mph - N/A   Clear
1:53 AM 28.0 °F 20.8 °F 21.9 °F 78% 30.17 in 10.0 mi West 6.9 mph - N/A   Clear
2:53 AM 28.0 °F 22.8 °F 21.0 °F 75% 30.19 in 10.0 mi West 4.6 mph - N/A   Clear
3:53 AM 26.1 °F 18.4 °F 21.9 °F 84% 30.22 in 10.0 mi SW 6.9 mph - N/A   Clear
4:53 AM 26.1 °F 21.9 °F 21.0 °F 81% 30.21 in 10.0 mi SW 3.5 mph - N/A   Partly Cloudy
5:53 AM 26.1 °F 19.4 °F 21.0 °F 81% 30.22 in 10.0 mi SSW 5.8 mph - N/A   Clear
6:53 AM 26.1 °F 18.4 °F 19.9 °F 78% 30.22 in 10.0 mi South 6.9 mph - N/A   Clear
7:53 AM 26.1 °F 19.4 °F 21.0 °F 81% 30.25 in 9.0 mi SSW 5.8 mph - N/A   Clear
8:53 AM 27.0 °F 21.6 °F 23.0 °F 85% 30.26 in 9.0 mi SSW 4.6 mph - N/A   Clear
9:53 AM 30.9 °F 24.3 °F 24.1 °F 76% 30.27 in 10.0 mi SSW 6.9 mph - N/A   Clear
10:53 AM 33.1 °F 26.9 °F 25.0 °F 72% 30.29 in 10.0 mi SSW 6.9 mph - N/A   Scattered Clouds
11:53 AM 35.1 °F 28.6 °F 26.1 °F 70% 30.27 in 10.0 mi SSW 8.1 mph - N/A   Scattered Clouds
12:53 PM 37.9 °F 30.9 °F 27.0 °F 65% 30.26 in 10.0 mi SSW 10.4 mph - N/A   Mostly Cloudy
1:53 PM 41.0 °F 35.2 °F 26.1 °F 55% 30.24 in 10.0 mi SW 9.2 mph - N/A   Partly Cloudy
2:53 PM 41.0 °F 34.7 °F 26.1 °F 55% 30.22 in 10.0 mi SW 10.4 mph - N/A   Clear
4:53 PM 39.0 °F 34.8 °F 26.1 °F 60% 30.21 in 10.0 mi South 5.8 mph - N/A   Clear
5:53 PM 37.9 °F - 25.0 °F 60% 30.22 in 10.0 mi Calm Calm - N/A   Clear
6:53 PM 36.0 °F - 26.1 °F 67% 30.22 in 10.0 mi Calm Calm - N/A   Clear
7:53 PM 35.1 °F 32.2 °F 26.1 °F 70% 30.23 in 10.0 mi South 3.5 mph - N/A   Clear
8:53 PM 34.0 °F 29.8 °F 26.1 °F 73% 30.22 in 10.0 mi South 4.6 mph - N/A   Partly Cloudy
9:53 PM 34.0 °F - 28.0 °F 79% 30.22 in 10.0 mi Calm Calm - N/A   Clear
10:53 PM 34.0 °F 31.0 °F 28.0 °F 79% 30.21 in 10.0 mi South 3.5 mph - N/A   Clear
11:53 PM 33.1 °F - 27.0 °F 78% 30.19 in 10.0 mi Calm Calm - N/A   Overcast